Location: Demre
(36.2444°N, 29.9850°E)
Time: 05:31:50
(UTC+00:00)

ISS - Pass Details

Date: 11 March 2026
Orbit: 415 x 425 km, 51.6° (Epoch: 21 April)

Event Time Altitude Azimuth Distance (km) Brightness Sun altitude
Rises 16:58:16 0° 223° (SW) 2,376 0.7 -11.8°
Reaches altitude 10° 17:00:22 10° 221° (SW) 1,513 -0.4 -12.2°
Maximum altitude 17:03:45 71° 137° (SE) 453 -3.8 -12.9°
Enters shadow 17:06:12 18° 55° (NE) 1,138 -2.0 -13.4°
